Wetterdaten: Donnerstag / Freitag, 05.11.2010
Datum Zeit Temp. A. Feuchte A. Luftdruck Regen Wind Richtung Richtung Sonnenschein UV Solar Windben
04.11.2010 23:00 14,9 C 80 % 1017,6 hPa 0,0 mm 9,2 km/h (2 Bft) W 260 0 min 0 UV-I 0 W/m 25,7 km/h (4 Bft)
04.11.2010 23:10 14,9 C 79 % 1017,7 hPa 0,0 mm 9,9 km/h (2 Bft) SW 234 0 min 0 UV-I 0 W/m 27,4 km/h (4 Bft)
04.11.2010 23:20 15,0 C 79 % 1017,6 hPa 0,0 mm 11,7 km/h (2 Bft) W-SW 245 0 min 0 UV-I 0 W/m 27,4 km/h (4 Bft)
04.11.2010 23:30 15,1 C 79 % 1017,6 hPa 0,0 mm 9,6 km/h (2 Bft) SW 236 0 min 0 UV-I 0 W/m 27,4 km/h (4 Bft)
04.11.2010 23:40 15,1 C 79 % 1017,5 hPa 0,0 mm 10,9 km/h (2 Bft) SW 232 0 min 0 UV-I 0 W/m 29,0 km/h (5 Bft)
04.11.2010 23:50 15,1 C 79 % 1017,5 hPa 0,0 mm 10,8 km/h (2 Bft) SW 229 0 min 0 UV-I 0 W/m 27,4 km/h (4 Bft)
05.11.2010 00:00 15,1 C 79 % 1017,4 hPa 0,0 mm 10,6 km/h (2 Bft) W-SW 252 0 min 0 UV-I 0 W/m 27,4 km/h (4 Bft)
05.11.2010 00:10 15,1 C 79 % 1017,2 hPa 0,0 mm 9,7 km/h (2 Bft) SW 225 0 min 0 UV-I 0 W/m 32,2 km/h (5 Bft)
05.11.2010 00:20 15,1 C 79 % 1017,4 hPa 0,0 mm 9,7 km/h (2 Bft) W-SW 247 0 min 0 UV-I 0 W/m 25,7 km/h (4 Bft)
05.11.2010 00:30 15,1 C 79 % 1017,4 hPa 0,0 mm 12,9 km/h (3 Bft) W-SW 247 0 min 0 UV-I 0 W/m 33,8 km/h (5 Bft)
05.11.2010 00:40 15,1 C 79 % 1017,3 hPa 0,0 mm 11,3 km/h (2 Bft) W-SW 247 0 min 0 UV-I 0 W/m 25,7 km/h (4 Bft)
05.11.2010 00:50 15,1 C 78 % 1017,4 hPa 0,0 mm 12,9 km/h (3 Bft) W-SW 247 0 min 0 UV-I 0 W/m 35,4 km/h (5 Bft)
05.11.2010 01:00 15,1 C 78 % 1017,5 hPa 0,0 mm 14,5 km/h (3 Bft) W-SW 247 0 min 0 UV-I 0 W/m 33,8 km/h (5 Bft)
05.11.2010 01:10 15,1 C 78 % 1017,5 hPa 0,0 mm 14,5 km/h (3 Bft) W 270 0 min 0 UV-I 0 W/m 35,4 km/h (5 Bft)
05.11.2010 01:20 15,1 C 77 % 1017,5 hPa 0,0 mm 17,7 km/h (3 Bft) W-SW 247 0 min 0 UV-I 0 W/m 41,8 km/h (6 Bft)
05.11.2010 01:30 15,1 C 76 % 1017,3 hPa 0,0 mm 19,3 km/h (3 Bft) W-SW 247 0 min 0 UV-I 0 W/m 48,3 km/h (6 Bft)
05.11.2010 01:40 14,9 C 76 % 1017,4 hPa 0,0 mm 14,5 km/h (3 Bft) W-SW 247 0 min 0 UV-I 0 W/m 33,8 km/h (5 Bft)
05.11.2010 01:50 14,8 C 75 % 1017,3 hPa 0,0 mm 16,1 km/h (3 Bft) W-SW 247 0 min 0 UV-I 0 W/m 30,6 km/h (5 Bft)
05.11.2010 02:00 14,8 C 75 % 1017,2 hPa 0,0 mm 16,1 km/h (3 Bft) W-SW 247 0 min 0 UV-I 0 W/m 37,0 km/h (5 Bft)
05.11.2010 02:10 14,8 C 74 % 1017,2 hPa 0,0 mm 12,9 km/h (3 Bft) W-SW 247 0 min 0 UV-I 0 W/m 33,8 km/h (5 Bft)
05.11.2010 02:20 14,8 C 74 % 1017,2 hPa 0,0 mm 14,5 km/h (3 Bft) W-SW 247 0 min 0 UV-I 0 W/m 40,2 km/h (6 Bft)
05.11.2010 02:30 14,8 C 74 % 1017,2 hPa 0,0 mm 12,9 km/h (3 Bft) W-SW 247 0 min 0 UV-I 0 W/m 27,4 km/h (4 Bft)
05.11.2010 02:40 14,8 C 74 % 1017,1 hPa 0,0 mm 16,1 km/h (3 Bft) W-SW 247 0 min 0 UV-I 0 W/m 35,4 km/h (5 Bft)
05.11.2010 02:50 14,9 C 74 % 1017,0 hPa 0,0 mm 14,5 km/h (3 Bft) W-SW 247 0 min 0 UV-I 0 W/m 32,2 km/h (5 Bft)
05.11.2010 03:00 15,0 C 74 % 1017,1 hPa 0,0 mm 16,1 km/h (3 Bft) W-SW 247 0 min 0 UV-I 0 W/m 32,2 km/h (5 Bft)
05.11.2010 03:10 15,1 C 74 % 1017,1 hPa 0,0 mm 12,9 km/h (3 Bft) W-SW 247 0 min 0 UV-I 0 W/m 33,8 km/h (5 Bft)
05.11.2010 03:20 15,1 C 74 % 1017,1 hPa 0,0 mm 14,5 km/h (3 Bft) W-SW 247 0 min 0 UV-I 0 W/m 33,8 km/h (5 Bft)
05.11.2010 03:30 15,1 C 73 % 1016,9 hPa 0,0 mm 14,5 km/h (3 Bft) W-SW 247 0 min 0 UV-I 0 W/m 32,2 km/h (5 Bft)
05.11.2010 03:40 15,1 C 73 % 1017,0 hPa 0,0 mm 14,5 km/h (3 Bft) W-SW 247 0 min 0 UV-I 0 W/m 33,8 km/h (5 Bft)
05.11.2010 03:50 15,1 C 73 % 1017,0 hPa 0,0 mm 17,7 km/h (3 Bft) W-SW 247 0 min 0 UV-I 0 W/m 45,1 km/h (6 Bft)
05.11.2010 04:00 15,1 C 73 % 1016,9 hPa 0,0 mm 16,1 km/h (3 Bft) W-SW 247 0 min 0 UV-I 0 W/m 30,6 km/h (5 Bft)
05.11.2010 04:10 15,0 C 73 % 1016,9 hPa 0,0 mm 12,9 km/h (3 Bft) W 270 0 min 0 UV-I 0 W/m 35,4 km/h (5 Bft)
05.11.2010 04:20 14,9 C 73 % 1016,7 hPa 0,0 mm 14,5 km/h (3 Bft) W-SW 247 0 min 0 UV-I 0 W/m 40,2 km/h (6 Bft)
05.11.2010 04:30 14,9 C 73 % 1016,7 hPa 0,0 mm 14,5 km/h (3 Bft) W-SW 247 0 min 0 UV-I 0 W/m 32,2 km/h (5 Bft)
05.11.2010 04:40 14,9 C 73 % 1016,8 hPa 0,0 mm 16,1 km/h (3 Bft) W-SW 247 0 min 0 UV-I 0 W/m 43,5 km/h (6 Bft)
05.11.2010 04:50 14,9 C 73 % 1016,7 hPa 0,0 mm 16,1 km/h (3 Bft) W-SW 247 0 min 0 UV-I 0 W/m 41,8 km/h (6 Bft)
05.11.2010 05:00 14,8 C 73 % 1016,5 hPa 0,0 mm 14,5 km/h (3 Bft) SW 225 0 min 0 UV-I 0 W/m 32,2 km/h (5 Bft)
05.11.2010 05:10 14,8 C 73 % 1016,2 hPa 0,0 mm 14,5 km/h (3 Bft) W-SW 247 0 min 0 UV-I 0 W/m 37,0 km/h (5 Bft)
05.11.2010 05:20 14,7 C 73 % 1016,3 hPa 0,0 mm 14,5 km/h (3 Bft) W-SW 247 0 min 0 UV-I 0 W/m 32,2 km/h (5 Bft)
05.11.2010 05:30 14,7 C 74 % 1016,4 hPa 0,0 mm 12,9 km/h (3 Bft) W-SW 247 0 min 0 UV-I 0 W/m 27,4 km/h (4 Bft)
05.11.2010 05:40 14,7 C 74 % 1016,5 hPa 0,0 mm 12,9 km/h (3 Bft) W-SW 247 0 min 0 UV-I 0 W/m 40,2 km/h (6 Bft)
05.11.2010 05:50 14,7 C 76 % 1016,8 hPa 0,0 mm 14,5 km/h (3 Bft) W-SW 247 0 min 0 UV-I 0 W/m 45,1 km/h (6 Bft)
05.11.2010 06:00 14,6 C 78 % 1016,8 hPa 0,0 mm 14,5 km/h (3 Bft) W-SW 247 0 min 0 UV-I 0 W/m 41,8 km/h (6 Bft)
05.11.2010 06:10 14,2 C 80 % 1016,9 hPa 0,3 mm 16,1 km/h (3 Bft) W-SW 247 0 min 0 UV-I 0 W/m 38,6 km/h (5 Bft)
05.11.2010 06:20 13,8 C 83 % 1017,0 hPa 0,3 mm 14,5 km/h (3 Bft) W-SW 247 0 min 0 UV-I 0 W/m 35,4 km/h (5 Bft)
05.11.2010 06:30 13,5 C 84 % 1017,0 hPa 0,0 mm 11,3 km/h (2 Bft) W-SW 247 0 min 0 UV-I 0 W/m 24,1 km/h (4 Bft)
05.11.2010 06:40 13,3 C 85 % 1017,0 hPa 0,0 mm 11,3 km/h (2 Bft) W-SW 247 0 min 0 UV-I 0 W/m 25,7 km/h (4 Bft)
05.11.2010 06:50 13,1 C 85 % 1017,1 hPa 0,0 mm 11,3 km/h (2 Bft) W-SW 247 0 min 0 UV-I 0 W/m 30,6 km/h (5 Bft)
05.11.2010 07:00 13,1 C 85 % 1017,1 hPa 0,0 mm 11,3 km/h (2 Bft) W-SW 247 0 min 0 UV-I 0 W/m 25,7 km/h (4 Bft)
05.11.2010 07:10 13,1 C 85 % 1017,2 hPa 0,0 mm 9,7 km/h (2 Bft) W-SW 247 0 min 0 UV-I 0 W/m 24,1 km/h (4 Bft)
05.11.2010 07:20 13,2 C 85 % 1017,3 hPa 0,0 mm 11,3 km/h (2 Bft) W 270 0 min 0 UV-I 0 W/m 37,0 km/h (5 Bft)
05.11.2010 07:30 13,2 C 85 % 1017,4 hPa 0,5 mm 12,9 km/h (3 Bft) W-SW 247 0 min 0 UV-I 0 W/m 29,0 km/h (5 Bft)
05.11.2010 07:40 13,1 C 86 % 1017,5 hPa 0,3 mm 11,3 km/h (2 Bft) W-SW 247 0 min 0 UV-I 0 W/m 32,2 km/h (5 Bft)
05.11.2010 07:50 13,0 C 86 % 1017,6 hPa 0,5 mm 11,3 km/h (2 Bft) W-SW 247 0 min 0 UV-I 0 W/m 27,4 km/h (4 Bft)
05.11.2010 08:00 12,8 C 87 % 1017,7 hPa 0,0 mm 11,4 km/h (2 Bft) W 272 0 min 0 UV-I 0 W/m 19,3 km/h (3 Bft)
05.11.2010 08:10 12,8 C 87 % 1017,7 hPa 0,0 mm 9,7 km/h (2 Bft) W-SW 247 0 min 0 UV-I 0 W/m 27,4 km/h (4 Bft)
05.11.2010 08:20 12,8 C 88 % 1017,9 hPa 0,0 mm 9,7 km/h (2 Bft) W-SW 247 0 min 0 UV-I 7 W/m 22,5 km/h (4 Bft)
05.11.2010 08:30 12,8 C 88 % 1018,0 hPa 0,0 mm 8,0 km/h (2 Bft) W-SW 247 0 min 0 UV-I 11 W/m 20,9 km/h (4 Bft)
05.11.2010 08:40 12,7 C 88 % 1018,0 hPa 0,3 mm 11,3 km/h (2 Bft) W-SW 247 0 min 0 UV-I 12 W/m 24,1 km/h (4 Bft)
05.11.2010 08:50 12,6 C 89 % 1018,0 hPa 0,0 mm 9,7 km/h (2 Bft) W-SW 247 0 min 0 UV-I 16 W/m 30,6 km/h (5 Bft)
05.11.2010 09:00 12,6 C 89 % 1018,2 hPa 0,0 mm 8,0 km/h (2 Bft) SW 225 0 min 0 UV-I 11 W/m 25,7 km/h (4 Bft)
05.11.2010 09:10 12,6 C 89 % 1018,1 hPa 0,0 mm 11,3 km/h (2 Bft) W-SW 247 0 min 0 UV-I 14 W/m 38,6 km/h (5 Bft)
05.11.2010 09:20 12,6 C 89 % 1018,0 hPa 0,0 mm 16,1 km/h (3 Bft) W-SW 247 0 min 0 UV-I 21 W/m 35,4 km/h (5 Bft)
05.11.2010 09:30 12,6 C 89 % 1018,3 hPa 0,0 mm 12,9 km/h (3 Bft) W-SW 247 0 min 0 UV-I 30 W/m 33,8 km/h (5 Bft)
05.11.2010 09:40 12,7 C 89 % 1018,3 hPa 0,0 mm 12,9 km/h (3 Bft) W-SW 247 0 min 0 UV-I 26 W/m 30,6 km/h (5 Bft)
05.11.2010 09:50 12,7 C 88 % 1018,4 hPa 0,0 mm 11,3 km/h (2 Bft) W 270 0 min 0 UV-I 26 W/m 32,2 km/h (5 Bft)
05.11.2010 10:00 12,8 C 88 % 1018,4 hPa 0,0 mm 12,9 km/h (3 Bft) SW 225 0 min 0 UV-I 39 W/m 33,8 km/h (5 Bft)
05.11.2010 10:10 12,9 C 88 % 1018,4 hPa 0,0 mm 11,3 km/h (2 Bft) W-SW 247 0 min 0 UV-I 37 W/m 30,6 km/h (5 Bft)
05.11.2010 10:20 13,1 C 87 % 1018,5 hPa 0,0 mm 12,9 km/h (3 Bft) W-SW 247 0 min 0 UV-I 51 W/m 29,0 km/h (5 Bft)
05.11.2010 10:30 13,2 C 87 % 1018,6 hPa 0,0 mm 12,9 km/h (3 Bft) W-SW 247 0 min 1 UV-I 98 W/m 37,0 km/h (5 Bft)
05.11.2010 10:40 13,3 C 87 % 1018,6 hPa 0,0 mm 12,9 km/h (3 Bft) W-SW 247 0 min 1 UV-I 90 W/m 32,2 km/h (5 Bft)
05.11.2010 10:50 13,3 C 87 % 1018,6 hPa 0,0 mm 12,9 km/h (3 Bft) W-SW 247 0 min 1 UV-I 90 W/m 32,2 km/h (5 Bft)
05.11.2010 11:00 13,3 C 87 % 1018,6 hPa 0,0 mm 12,9 km/h (3 Bft) W-SW 247 0 min 1 UV-I 95 W/m 30,6 km/h (5 Bft)
05.11.2010 11:10 13,4 C 87 % 1018,6 hPa 0,0 mm 12,9 km/h (3 Bft) W-SW 247 0 min 1 UV-I 127 W/m 32,2 km/h (5 Bft)
05.11.2010 11:20 13,4 C 87 % 1018,7 hPa 0,0 mm 12,9 km/h (3 Bft) W-SW 247 0 min 1 UV-I 118 W/m 33,8 km/h (5 Bft)
05.11.2010 11:30 13,6 C 86 % 1018,8 hPa 0,0 mm 12,9 km/h (3 Bft) W-SW 247 0 min 1 UV-I 72 W/m 29,0 km/h (5 Bft)
05.11.2010 11:40 13,6 C 86 % 1018,8 hPa 0,0 mm 14,5 km/h (3 Bft) W-SW 247 0 min 0 UV-I 51 W/m 29,0 km/h (5 Bft)
05.11.2010 11:50 13,7 C 85 % 1019,1 hPa 0,0 mm 11,3 km/h (2 Bft) W-SW 247 0 min 0 UV-I 53 W/m 27,4 km/h (4 Bft)
05.11.2010 12:00 13,7 C 85 % 1019,0 hPa 0,0 mm 9,7 km/h (2 Bft) W-SW 247 0 min 0 UV-I 60 W/m 27,4 km/h (4 Bft)
05.11.2010 12:10 13,8 C 84 % 1019,0 hPa 0,0 mm 11,3 km/h (2 Bft) W-SW 247 0 min 0 UV-I 49 W/m 25,7 km/h (4 Bft)
05.11.2010 12:20 13,8 C 84 % 1018,9 hPa 0,0 mm 8,0 km/h (2 Bft) W-SW 247 0 min 0 UV-I 44 W/m 19,3 km/h (3 Bft)
05.11.2010 12:30 13,8 C 84 % 1018,9 hPa 0,0 mm 11,3 km/h (2 Bft) W-SW 247 0 min 0 UV-I 60 W/m 29,0 km/h (5 Bft)
05.11.2010 12:40 13,8 C 84 % 1018,8 hPa 0,0 mm 12,9 km/h (3 Bft) W-SW 247 0 min 1 UV-I 70 W/m 29,0 km/h (5 Bft)
05.11.2010 12:50 13,9 C 84 % 1018,8 hPa 0,0 mm 9,7 km/h (2 Bft) W-SW 247 0 min 1 UV-I 72 W/m 27,4 km/h (4 Bft)
05.11.2010 13:00 14,0 C 84 % 1019,0 hPa 0,0 mm 11,7 km/h (2 Bft) S-SW 209 0 min 0 UV-I 54 W/m 27,4 km/h (4 Bft)
05.11.2010 13:10 14,0 C 84 % 1018,8 hPa 0,0 mm 12,8 km/h (3 Bft) W 279 0 min 0 UV-I 42 W/m 29,0 km/h (5 Bft)
05.11.2010 13:20 13,9 C 85 % 1018,9 hPa 0,0 mm 13,7 km/h (3 Bft) W-SW 241 0 min 0 UV-I 31 W/m 32,2 km/h (5 Bft)
05.11.2010 13:30 13,8 C 85 % 1018,8 hPa 0,0 mm 11,3 km/h (2 Bft) SW 234 0 min 0 UV-I 43 W/m 27,4 km/h (4 Bft)
05.11.2010 13:40 13,7 C 86 % 1018,8 hPa 0,0 mm 9,2 km/h (2 Bft) W-SW 253 0 min 0 UV-I 34 W/m 25,7 km/h (4 Bft)
05.11.2010 13:50 13,6 C 87 % 1018,8 hPa 0,0 mm 9,9 km/h (2 Bft) SW 216 0 min 0 UV-I 36 W/m 22,5 km/h (4 Bft)
05.11.2010 14:00 13,5 C 88 % 1018,7 hPa 0,0 mm 8,6 km/h (2 Bft) W-SW 239 0 min 0 UV-I 26 W/m 24,1 km/h (4 Bft)
05.11.2010 14:10 13,4 C 88 % 1018,7 hPa 0,0 mm 10,7 km/h (2 Bft) W-SW 252 0 min 0 UV-I 21 W/m 25,7 km/h (4 Bft)
05.11.2010 14:20 13,3 C 89 % 1018,5 hPa 0,0 mm 8,9 km/h (2 Bft) W-SW 252 0 min 0 UV-I 13 W/m 24,1 km/h (4 Bft)
05.11.2010 14:30 13,3 C 89 % 1018,6 hPa 0,0 mm 9,5 km/h (2 Bft) W-SW 244 0 min 0 UV-I 13 W/m 24,1 km/h (4 Bft)
05.11.2010 14:40 13,3 C 89 % 1018,4 hPa 0,0 mm 7,5 km/h (2 Bft) W 263 0 min 0 UV-I 11 W/m 20,9 km/h (4 Bft)
05.11.2010 14:50 13,4 C 89 % 1018,4 hPa 0,0 mm 8,6 km/h (2 Bft) W 262 0 min 0 UV-I 12 W/m 20,9 km/h (4 Bft)
05.11.2010 15:00 13,4 C 89 % 1018,4 hPa 0,0 mm 7,3 km/h (2 Bft) SW 218 0 min 0 UV-I 8 W/m 20,9 km/h (4 Bft)
05.11.2010 15:10 13,4 C 89 % 1018,4 hPa 0,0 mm 7,4 km/h (2 Bft) SW 236 0 min 0 UV-I 7 W/m 19,3 km/h (3 Bft)
05.11.2010 15:20 13,4 C 89 % 1018,6 hPa 0,0 mm 8,0 km/h (2 Bft) W-SW 238 0 min 0 UV-I 10 W/m 22,5 km/h (4 Bft)
05.11.2010 15:30 13,4 C 89 % 1018,8 hPa 0,3 mm 9,1 km/h (2 Bft) NW 311 0 min 0 UV-I 8 W/m 29,0 km/h (5 Bft)
05.11.2010 15:40 13,3 C 89 % 1018,8 hPa 0,5 mm 5,0 km/h (1 Bft) W 268 0 min 0 UV-I 10 W/m 16,1 km/h (3 Bft)
05.11.2010 15:50 13,3 C 89 % 1018,8 hPa 0,5 mm 4,8 km/h (1 Bft) W-SW 247 0 min 0 UV-I 12 W/m 19,3 km/h (3 Bft)
05.11.2010 16:00 13,2 C 89 % 1018,5 hPa 0,3 mm 8,3 km/h (2 Bft) W-SW 253 0 min 0 UV-I 6 W/m 19,3 km/h (3 Bft)
05.11.2010 16:10 13,2 C 90 % 1018,4 hPa 0,0 mm 6,4 km/h (2 Bft) W-SW 247 0 min 0 UV-I 5 W/m 17,7 km/h (3 Bft)
05.11.2010 16:20 13,1 C 90 % 1018,3 hPa 0,0 mm 4,8 km/h (1 Bft) W-SW 247 0 min 0 UV-I 0 W/m 17,7 km/h (3 Bft)
05.11.2010 16:30 13,1 C 90 % 1018,2 hPa 0,0 mm 4,8 km/h (1 Bft) W-SW 247 0 min 0 UV-I 0 W/m 17,7 km/h (3 Bft)
05.11.2010 16:40 13,0 C 90 % 1018,3 hPa 0,0 mm 4,8 km/h (1 Bft) SW 225 0 min 0 UV-I 0 W/m 14,5 km/h (3 Bft)
05.11.2010 16:50 12,9 C 91 % 1018,3 hPa 0,0 mm 4,8 km/h (1 Bft) W-SW 247 0 min 0 UV-I 0 W/m 17,7 km/h (3 Bft)
05.11.2010 17:00 12,9 C 91 % 1018,3 hPa 0,0 mm 6,4 km/h (2 Bft) W-SW 247 0 min 0 UV-I 0 W/m 17,7 km/h (3 Bft)
05.11.2010 17:10 12,9 C 91 % 1018,2 hPa 0,0 mm 6,4 km/h (2 Bft) W-SW 247 0 min 0 UV-I 0 W/m 16,1 km/h (3 Bft)
05.11.2010 17:20 12,9 C 91 % 1018,3 hPa 0,0 mm 8,0 km/h (2 Bft) W-SW 247 0 min 0 UV-I 0 W/m 17,7 km/h (3 Bft)
05.11.2010 17:30 12,9 C 91 % 1018,1 hPa 0,0 mm 6,4 km/h (2 Bft) W-SW 247 0 min 0 UV-I 0 W/m 20,9 km/h (4 Bft)
05.11.2010 17:40 12,9 C 91 % 1017,7 hPa 0,0 mm 6,4 km/h (2 Bft) W-SW 247 0 min 0 UV-I 0 W/m 17,7 km/h (3 Bft)
05.11.2010 17:50 12,9 C 91 % 1017,7 hPa 0,0 mm 4,8 km/h (1 Bft) W-SW 247 0 min 0 UV-I 0 W/m 19,3 km/h (3 Bft)
05.11.2010 18:00 12,9 C 92 % 1017,6 hPa 0,0 mm 6,4 km/h (2 Bft) W-SW 247 0 min 0 UV-I 0 W/m 19,3 km/h (3 Bft)
05.11.2010 18:10 12,9 C 92 % 1017,7 hPa 0,0 mm 6,4 km/h (2 Bft) W-SW 247 0 min 0 UV-I 0 W/m 20,9 km/h (4 Bft)
05.11.2010 18:20 12,9 C 92 % 1017,8 hPa 0,0 mm 4,8 km/h (1 Bft) SW 225 0 min 0 UV-I 0 W/m 16,1 km/h (3 Bft)
05.11.2010 18:30 12,9 C 92 % 1017,8 hPa 0,0 mm 4,8 km/h (1 Bft) W-SW 247 0 min 0 UV-I 0 W/m 11,3 km/h (2 Bft)
05.11.2010 18:40 12,9 C 92 % 1017,5 hPa 0,0 mm 4,8 km/h (1 Bft) SW 225 0 min 0 UV-I 0 W/m 17,7 km/h (3 Bft)
05.11.2010 18:50 12,9 C 92 % 1017,7 hPa 0,0 mm 3,2 km/h (1 Bft) W-SW 247 0 min 0 UV-I 0 W/m 12,9 km/h (3 Bft)
05.11.2010 19:00 12,9 C 92 % 1017,6 hPa 0,3 mm 3,2 km/h (1 Bft) W-SW 247 0 min 0 UV-I 0 W/m 11,3 km/h (2 Bft)
05.11.2010 19:10 12,9 C 92 % 1017,6 hPa 0,0 mm 3,2 km/h (1 Bft) W-SW 247 0 min 0 UV-I 0 W/m 11,3 km/h (2 Bft)
05.11.2010 19:20 12,9 C 92 % 1017,3 hPa 0,0 mm 3,5 km/h (1 Bft) S-SW 209 0 min 0 UV-I 0 W/m 9,7 km/h (2 Bft)
05.11.2010 19:30 12,9 C 92 % 1017,2 hPa 0,0 mm 4,1 km/h (1 Bft) SW 234 0 min 0 UV-I 0 W/m 16,1 km/h (3 Bft)
05.11.2010 19:40 12,8 C 92 % 1017,0 hPa 0,0 mm 4,0 km/h (1 Bft) S 173 0 min 0 UV-I 0 W/m 11,3 km/h (2 Bft)
05.11.2010 19:50 12,8 C 92 % 1016,9 hPa 0,3 mm 3,6 km/h (1 Bft) S-SW 202 0 min 0 UV-I 0 W/m 16,1 km/h (3 Bft)
05.11.2010 20:00 12,8 C 92 % 1016,8 hPa 0,0 mm 3,6 km/h (1 Bft) W-SW 244 0 min 0 UV-I 0 W/m 9,7 km/h (2 Bft)
05.11.2010 20:10 12,8 C 92 % 1016,7 hPa 0,0 mm 5,0 km/h (1 Bft) W-SW 245 0 min 0 UV-I 0 W/m 17,7 km/h (3 Bft)
05.11.2010 20:20 12,8 C 92 % 1016,4 hPa 0,0 mm 4,8 km/h (1 Bft) SW 219 0 min 0 UV-I 0 W/m 14,5 km/h (3 Bft)
05.11.2010 20:30 12,8 C 92 % 1016,3 hPa 0,0 mm 5,3 km/h (1 Bft) SW 214 0 min 0 UV-I 0 W/m 17,7 km/h (3 Bft)
05.11.2010 20:40 12,8 C 92 % 1015,9 hPa 0,0 mm 4,8 km/h (1 Bft) S-SW 198 0 min 0 UV-I 0 W/m 12,9 km/h (3 Bft)
05.11.2010 20:50 12,8 C 92 % 1015,8 hPa 0,0 mm 4,4 km/h (1 Bft) SW 222 0 min 0 UV-I 0 W/m 14,5 km/h (3 Bft)
05.11.2010 21:00 12,8 C 93 % 1015,5 hPa 0,0 mm 3,4 km/h (1 Bft) SW 232 0 min 0 UV-I 0 W/m 11,3 km/h (2 Bft)
05.11.2010 21:10 12,8 C 92 % 1015,2 hPa 0,0 mm 4,2 km/h (1 Bft) S-SW 198 0 min 0 UV-I 0 W/m 9,7 km/h (2 Bft)
05.11.2010 21:20 12,8 C 92 % 1015,3 hPa 0,3 mm 3,6 km/h (1 Bft) SW 217 0 min 0 UV-I 0 W/m 11,3 km/h (2 Bft)
05.11.2010 21:30 12,7 C 92 % 1015,2 hPa 0,0 mm 4,7 km/h (1 Bft) SO 134 0 min 0 UV-I 0 W/m 16,1 km/h (3 Bft)
05.11.2010 21:40 12,7 C 93 % 1015,0 hPa 0,0 mm 4,4 km/h (1 Bft) SW 236 0 min 0 UV-I 0 W/m 16,1 km/h (3 Bft)
05.11.2010 21:50 12,8 C 93 % 1015,1 hPa 0,3 mm 5,9 km/h (2 Bft) W-SW 249 0 min 0 UV-I 0 W/m 16,1 km/h (3 Bft)
05.11.2010 22:00 12,8 C 93 % 1014,9 hPa 0,0 mm 6,6 km/h (2 Bft) W-SW 253 0 min 0 UV-I 0 W/m 20,9 km/h (4 Bft)
05.11.2010 22:10 12,8 C 93 % 1014,9 hPa 0,0 mm 7,3 km/h (2 Bft) W-SW 246 0 min 0 UV-I 0 W/m 25,7 km/h (4 Bft)
05.11.2010 22:20 12,9 C 93 % 1014,2 hPa 0,0 mm 9,1 km/h (2 Bft) SW 226 0 min 0 UV-I 0 W/m 30,6 km/h (5 Bft)
_ Min-Zeit 08:50 03:30 22:20 - 18:50 - - - - - 19:20
Minimum _ 12,6 C 73 % 1014,2 hPa - 3,2 km/h (1 Bft) - - - - - 9,7 km/h (2 Bft)
_ Max-Zeit 23:30 21:00 11:50 07:30 01:30 - - 23:00 11:10 11:10 01:30
Maximum _ 15,1 C 93 % 1019,1 hPa 0,5 mm 19,3 km/h
W-SW (3 Bft)
- - 0 min 1 UV-I 127 W/m 48,3 km/h
W-NW (6 Bft)
Durchschnitt _ 13,7 C 85 % 1017,6 hPa #4,6 mm 10,2 km/h (2 Bft) W-SW - #0 min. 1 UV-I 39 W/m 26,5 km/h (4 Bft)